This demonstration page uses our WeatherBlox Daily Observations layout. Learn more.

Left ArrowRight Arrow

Hourly Observations for October 30, 2016

Temp ( °F °C ) Dew Point ( °F °C ) Humidity (%) Winds ( mph kmh ) Pressure ( in mb ) Visibility ( mi km ) Precip ( " mm )
12:51 am 00:51 Clear 60 15.6 40 4.4 47 47 S 5 7 29.98 1015 10 16 0.00 0.00
1:51 am 01:51 Clear 59 15 40 4.4 49 49 ENE 3 6 29.98 1015 10 16 0.00 0.00
2:51 am 02:51 Clear 56 13.3 38 3.3 51 51 N 5 7 29.99 1016 10 16 0.00 0.00
3:51 am 03:51 Clear 55 12.8 39 3.9 55 55 SSE 5 7 29.99 1016 10 16 0.00 0.00
4:51 am 04:51 Clear 54 12.2 39 3.9 57 57 E 3 6 30.00 1016 10 16 0.00 0.00
5:51 am 05:51 Clear 51 10.6 39 3.9 64 64 Calm 30.02 1017 10 16 0.00 0.00
6:51 am 06:51 Sunny 53 11.7 39 3.9 59 59 ESE 7 11 30.04 1017 10 16 0.00 0.00
7:51 am 07:51 Sunny 67 19.4 38 3.3 35 35 E 6 9 30.04 1017 10 16 0.00 0.00
8:51 am 08:51 Sunny 71 21.7 38 3.3 30 30 ESE 13 20 30.05 1018 10 16 0.00 0.00
9:51 am 09:51 Sunny 77 25 38 3.3 24 24 SE 13 20 30.04 1017 10 16 0.00 0.00
10:51 am 10:51 Sunny 82 27.8 39 3.9 22 22 ESE 10 17 30.02 1017 10 16 0.00 0.00
11:51 am 11:51 Sunny 84 28.9 40 4.4 21 21 VRB 6 9 29.99 1016 10 16 0.00 0.00
12:51 pm 12:51 Sunny 88 31.1 41 5 19 19 SSE 8 13 29.94 1014 10 16 0.00 0.00
1:51 pm 13:51 Sunny 89 31.7 41 5 19 19 SSE 8 13 29.91 1013 10 16 0.00 0.00
2:51 pm 14:51 Sunny 89 31.7 39 3.9 17 17 VRB 3 6 29.89 1012 10 16 0.00 0.00
3:51 pm 15:51 Mostly Sunny 87 30.6 40 4.4 19 19 ENE 5 7 29.89 1012 10 16 0.00 0.00
4:51 pm 16:51 Sunny 85 29.4 42 5.6 22 22 NW 5 7 29.88 1012 10 16 0.00 0.00
5:51 pm 17:51 Clear 76 24.4 42 5.6 30 30 NW 8 13 29.91 1013 10 16 0.00 0.00
6:51 pm 18:51 Mostly Cloudy 74 23.3 42 5.6 32 32 W 8 13 29.93 1013 10 16 0.00 0.03
7:51 pm 19:51 Mostly Cloudy 71 21.7 43 6.1 36 36 WNW 8 13 29.91 1013 10 16 0.00 0.00
8:51 pm 20:51 Partly Cloudy 70 21.1 42 5.6 37 37 WNW 9 15 29.92 1013 10 16 0.00 0.03
9:51 pm 21:51 Mostly Clear 73 22.8 42 5.6 33 33 NW 9 15 29.91 1013 10 16 0.00 0.00
10:51 pm 22:51 Clear 71 21.7 42 5.6 35 35 NW 9 15 29.89 1012 10 16 0.00 0.03
11:51 pm 23:51 Clear 72 22.2 41 5 33 33 NW 10 17 29.88 1012 10 16 0.00 0.00

Powered by AerisWeather